Weather History for Green Bay, WI

Change the Weather History Date:

Sunday, December 9, 2012

  Actual Average Record
Temperature  
Mean Temperature 30 °F 24 °F  
Max Temperature 34 °F 30 °F 59 °F (1946)
Min Temperature 26 °F 17 °F -14 °F (1927)
Degree Days  
Heating Degree Days 35 42  
Month to date heating degree days 246 359  
Since 1 July heating degree days 1879 2099  
Cooling Degree Days 0 0  
Month to date cooling degree days 0 0  
Year to date cooling degree days 786 398  
Moisture  
Dew Point 28 °F    
Average Humidity 81    
Maximum Humidity 92    
Minimum Humidity 69    
Precipitation  
Precipitation 0.36 in 0.05 in 0.92 in (1907)
Month to date precipitation 0.54 0.52  
Year to date precipitation 29.53 28.53  
Snow  
Snow 3.70 in 0.50 in 11.20 in (2009)
Month to date snowfall 3.7 3.6  
Since 1 July snowfall 5.2 7.8  
Snow Depth 3.00 in    
Sea Level Pressure  
Sea Level Pressure 29.95 in    
Wind  
Wind Speed 9 mph (ENE)    
Max Wind Speed 17 mph    
Max Gust Speed 20 mph    
Visibility 4 miles    
Events Fog , Snow    
T = Trace of Precipitation, MM = Missing Value Source: NWS Daily Summary

Daily Weather History Graph

Daily Weather History Graph

Search for Another Location

Airport:

Trip Planner

Search our weather history database for the weather conditions in past years. The results will help you decide how hot, cold, wet, or windy it might be!

Date:

Astronomy

Dec. 09, 2012 Rise Set
Actual Time 7:17 AM CST 4:12 PM CST
Civil Twilight 6:44 AM CST 4:45 PM CST
Nautical Twilight 6:07 AM CST 5:22 PM CST
Astronomical Twilight 5:32 AM CST 5:57 PM CST
Moon 2:42 AM CST (12/9) 1:25 PM CST (12/9)
Length of Visible Light 10h 01m
Length of Day
8h 55m
Waning Crescent, 18% of the Moon is Illuminated
Dec 9
Waning Crescent
Dec 13
New
Dec 19
First Quarter
Dec 28
Full
Jan 4
Last Quarter

Hourly Weather History & Observations

Time (CST) Temp. Windchill Dew Point Humidity Pressure Visibility Wind Dir Wind Speed Gust Speed Precip Events Conditions
12:01 AM 28.4 °F 22.2 °F 21.2 °F 74% 30.16 in 10.0 mi ENE 5.8 mph - N/A   Mostly Cloudy
12:22 AM 26.6 °F 19.1 °F 19.4 °F 74% 30.16 in 10.0 mi ENE 6.9 mph - N/A   Scattered Clouds
12:53 AM 26.1 °F 18.4 °F 19.9 °F 78% 30.18 in 10.0 mi NE 6.9 mph - N/A   Clear
1:53 AM 28.9 °F 22.8 °F 21.0 °F 72% 30.17 in 10.0 mi ENE 5.8 mph - N/A   Scattered Clouds
2:53 AM 30.0 °F 23.2 °F 24.1 °F 79% 30.18 in 10.0 mi NE 6.9 mph - N/A   Overcast
3:53 AM 30.9 °F 26.2 °F 25.0 °F 79% 30.17 in 10.0 mi ENE 4.6 mph - N/A   Overcast
4:53 AM 33.1 °F 26.9 °F 26.1 °F 75% 30.14 in 10.0 mi East 6.9 mph - N/A   Overcast
5:53 AM 34.0 °F 27.2 °F 25.0 °F 70% 30.13 in 10.0 mi East 8.1 mph - N/A   Overcast
6:48 AM 33.8 °F 27.7 °F 24.8 °F 70% 30.12 in 10.0 mi East 6.9 mph - N/A   Overcast
6:53 AM 34.0 °F 27.2 °F 25.0 °F 70% 30.15 in 10.0 mi East 8.1 mph - N/A   Overcast
7:44 AM 33.8 °F 25.8 °F 24.8 °F 70% 30.09 in 10.0 mi ENE 10.4 mph 18.4 mph N/A   Overcast
7:53 AM 34.0 °F 26.6 °F 24.1 °F 67% 30.13 in 10.0 mi ENE 9.2 mph - N/A   Overcast
8:53 AM 34.0 °F 25.5 °F 24.1 °F 67% 30.12 in 10.0 mi East 11.5 mph - N/A   Overcast
9:12 AM 33.8 °F 25.8 °F 24.8 °F 70% 30.07 in 10.0 mi East 10.4 mph - N/A   Overcast
9:53 AM 34.0 °F 25.5 °F 27.0 °F 75% 30.09 in 3.0 mi East 11.5 mph - 0.00 in Snow Light Snow
10:11 AM 33.8 °F 25.8 °F 28.4 °F 81% 30.06 in 2.0 mi East 10.4 mph - 0.00 in Snow Light Snow
10:15 AM 33.8 °F 25.8 °F 28.4 °F 81% 30.06 in 1.8 mi East 10.4 mph - 0.00 in Snow Light Snow
10:53 AM 33.1 °F 25.5 °F 30.0 °F 89% 30.05 in 1.5 mi ENE 9.2 mph - 0.00 in Snow Light Snow
11:02 AM 33.8 °F 25.8 °F 30.2 °F 87% 30.02 in 1.8 mi ENE 10.4 mph - 0.00 in Snow Light Snow
11:43 AM 33.8 °F 26.4 °F 30.2 °F 87% 29.99 in 0.8 mi ENE 9.2 mph - 0.01 in Snow Light Snow
11:53 AM 33.1 °F 25.5 °F 30.9 °F 92% 30.01 in 1.0 mi ENE 9.2 mph - 0.02 in Snow Light Snow
12:14 PM 33.8 °F 26.4 °F 30.2 °F 87% 29.96 in 0.5 mi ENE 9.2 mph - 0.00 in Fog , Snow Snow
12:29 PM 33.8 °F 25.8 °F 30.2 °F 87% 29.95 in 0.2 mi ENE 10.4 mph - 0.02 in Fog , Snow Snow
12:36 PM 33.8 °F 27.0 °F 30.2 °F 87% 29.95 in 0.5 mi ENE 8.1 mph - 0.02 in Fog , Snow Snow
12:43 PM 33.8 °F 25.8 °F 30.2 °F 87% 29.94 in 0.2 mi ENE 10.4 mph - 0.03 in Fog , Snow Snow
12:53 PM 33.1 °F 25.5 °F 30.9 °F 92% 29.97 in 0.2 mi ENE 9.2 mph - 0.04 in Fog , Snow Snow
1:53 PM 33.1 °F 24.9 °F 30.9 °F 92% 29.93 in 0.2 mi ENE 10.4 mph - 0.08 in Fog , Snow Snow
2:19 PM 33.8 °F 25.8 °F 30.2 °F 87% 29.89 in 0.5 mi ENE 10.4 mph - 0.03 in Fog , Snow Snow
2:53 PM 33.1 °F 24.9 °F 30.9 °F 92% 29.89 in 0.8 mi ENE 10.4 mph - 0.04 in Snow Light Snow
3:33 PM 33.8 °F 25.3 °F 30.2 °F 87% 29.85 in 1.0 mi ENE 11.5 mph - 0.01 in Snow Light Snow
3:53 PM 33.1 °F 24.9 °F 30.9 °F 92% 29.88 in 2.0 mi ENE 10.4 mph - 0.01 in Snow Light Snow
4:00 PM 33.8 °F 25.3 °F 30.2 °F 87% 29.84 in 1.8 mi East 11.5 mph - 0.00 in Snow Light Snow
4:40 PM 33.8 °F 27.0 °F 30.2 °F 87% 29.83 in 2.0 mi ENE 8.1 mph - 0.01 in Snow Light Snow
4:53 PM 33.1 °F 24.9 °F 30.9 °F 92% 29.85 in 1.8 mi ENE 10.4 mph - 0.02 in Snow Light Snow
5:53 PM 33.1 °F 24.4 °F 30.9 °F 92% 29.81 in 1.0 mi ENE 11.5 mph - 0.02 in Snow Light Snow
6:53 PM 33.1 °F 26.1 °F 30.9 °F 92% 29.83 in 1.5 mi ENE 8.1 mph - 0.03 in Snow Light Snow
7:53 PM 32.0 °F 23.6 °F 30.9 °F 96% 29.82 in 1.2 mi NE 10.4 mph - 0.03 in Snow Light Snow
8:51 PM 32.0 °F 22.5 °F 30.2 °F 93% 29.77 in 2.0 mi NE 12.7 mph - 0.02 in Snow Light Snow
8:53 PM 32.0 °F 22.5 °F 30.0 °F 92% 29.79 in 2.0 mi NE 12.7 mph - 0.02 in Snow Light Snow
9:05 PM 32.0 °F 22.1 °F 30.2 °F 93% 29.77 in 1.5 mi NE 13.8 mph - 0.00 in Snow Light Snow
9:18 PM 32.0 °F 22.1 °F 30.2 °F 93% 29.75 in 2.0 mi NE 13.8 mph - N/A Snow Light Snow
9:26 PM 32.0 °F 21.2 °F 30.2 °F 93% 29.75 in 1.8 mi ENE 16.1 mph - 0.01 in Snow Light Snow
9:35 PM 32.0 °F 22.5 °F 28.4 °F 87% 29.75 in 2.5 mi ENE 12.7 mph - 0.01 in Snow Light Snow
9:44 PM 32.0 °F 22.5 °F 28.4 °F 87% 29.75 in 5.0 mi NE 12.7 mph - 0.01 in Snow Light Snow
9:53 PM 32.0 °F 23.0 °F 28.9 °F 88% 29.77 in 7.0 mi NE 11.5 mph - 0.01 in Snow Light Snow
10:53 PM 32.0 °F 24.2 °F 28.9 °F 88% 29.76 in 10.0 mi NE 9.2 mph - 0.00 in   Overcast
11:40 PM 32.0 °F 23.0 °F 28.4 °F 87% 29.72 in 4.0 mi NE 11.5 mph - 0.00 in Snow Light Snow
11:53 PM 32.0 °F 22.5 °F 28.9 °F 88% 29.74 in 3.0 mi NE 12.7 mph - 0.01 in Snow Light Snow